Regional Weather Roundup
Issued by NWS Midland/Odessa, TX

Home | Current Version | Previous Version | Text Only | Print | Product List | Glossary On
Versions: 1 2 3 4 5 6 7 8 9 10 11 12 13 14 15 16 17 18 19 20 21 22 23 24 25 26 27 28 29 30 31 32 33 34 35 36 37 38 39 40 41 42 43 44 45 46 47 48 49 50
000
ASUS44 KMAF 011910
RWRMAF
MIDLAND AREA WEATHER ROUNDUP
NATIONAL WEATHER SERVICE MIDLAND TX
200 PM CDT WED OCT 01 2014

...IN SOUTHWEST TEXAS AND SOUTHEAST NEW MEXICO...

CITY           SKY/WX    TMP DP  RH WIND       PRES   REMARKS
ALPINE         SUNNY     85  46  25 SW7G17    30.01F
ANDREWS        FAIR      87  46  24 SW13      29.85F
ARTESIA        NOT AVBL
BIG SPRING     SUNNY     89  56  32 S6        29.83F
CARLSBAD       SUNNY     83  51  33 SE9       29.85F
DRYDEN           N/A     91  63  39 VRB5      29.80F
FORT STOCKTON  SUNNY     89  46  22 NW8G17    29.86F
GUAD PASS      SUNNY     76  37  24 SW35G45   29.98F
HOBBS          SUNNY     81  41  24 SW10G18   29.88F
MARFA          SUNNY     81  46  30 W14G20    30.02F
MIDLAND AIRPK  SUNNY     89  50  26 SW9       29.84F
MIDLAND INTL   SUNNY     88  51  28 W7        29.83F
ODESSA         SUNNY     86  49  27 W9        29.85F
PECOS          SUNNY     88  48  24 W12       29.83F
PRESIDIO       FAIR      89  46  23 CALM      29.87F
SEMINOLE       SUNNY     85  44  24 W12G21    29.86F
SNYDER         SUNNY     85  66  51 SW10      29.81F
WINK           SUNNY     88  46  23 W16       29.83F
$$
...OTHER STATIONS IN TEXAS...

CITY           SKY/WX    TMP DP  RH WIND       PRES   REMARKS
ABILENE        SUNNY     90  66  45 SW13G21   29.79F
AMARILLO       SUNNY     79  43  27 VRB6      29.84F
AUSTIN         PTSUNNY   89  69  51 S10G17    29.79F
BROWNSVILLE    MOSUNNY   91  81  72 S15       29.79F HX 111
CORPUS CHRISTI PTSUNNY   90  74  59 S10       29.78F
DALLAS FTW     MOSUNNY   90  68  48 SE15      29.77F
DEL RIO        SUNNY     89  69  51 SE14G20   29.76F
EL PASO        SUNNY     81  33  17 W13G22    29.92F
HOUSTON INT    PTSUNNY   91  72  53 SE6       29.80F
LUBBOCK        SUNNY     84  48  28 W15       29.83F
SAN ANGELO     SUNNY     93  64  38 S8G22     29.79F
SAN ANTONIO    MOSUNNY   89  69  51 S12       29.81F
WACO           MOSUNNY   90  68  48 S10       29.79F
WICHITA FALLS  NOT AVBL
$$
...OTHER LOCATIONS IN NEW MEXICO...

CITY           SKY/WX    TMP DP  RH WIND       PRES   REMARKS
ALAMAGORDO     SUNNY     77  37  24 S8        29.93F
ALBUQUERQUE    MOSUNNY   70  34  26 S8        29.96F
CANNON AFB     SUNNY     77  37  24 W12       29.88F
CLOVIS           N/A     75  41  29 SW9       29.90F
HOLLOMAN AFB   SUNNY     80  32  17 VRB5      29.91F
ROSWELL        SUNNY     80  42  25 VRB3      29.88F
RUIDOSO        SUNNY     68  32  26 CALM      30.06F
SANTA FE       SUNNY     68  30  24 SW10G17   29.99F
TRUTH OR CONSE SUNNY     75  31  19 S9        29.94F
TUCUMCARI      SUNNY     78  34  20 CALM      29.85F
$$



USA.gov is the U.S. government's official web portal to all federal, state and local government web resources and services.